TimeCET,TemperatureF,Dew PointF,Humidity,Sea Level PressureIn,VisibilityMPH,Wind Direction,Wind SpeedMPH,Gust SpeedMPH,PrecipitationIn,Events,Conditions,WindDirDegrees,DateUTC
5:20 AM,44.6,39.2,81,30.15,6.2,SW,10.4,-,N/A,,Mostly Cloudy,230,2012-11-12 04:20:00
5:50 AM,44.6,39.2,81,30.18,6.2,WSW,6.9,-,N/A,,Mostly Cloudy,240,2012-11-12 04:50:00
6:20 AM,44.6,39.2,81,30.18,6.2,WSW,9.2,-,N/A,,Mostly Cloudy,250,2012-11-12 05:20:00
6:50 AM,42.8,37.4,81,30.18,6.2,WSW,6.9,-,N/A,,Mostly Cloudy,250,2012-11-12 05:50:00
7:20 AM,42.8,37.4,81,30.21,6.2,SW,6.9,-,N/A,,Mostly Cloudy,220,2012-11-12 06:20:00
7:50 AM,42.8,39.2,87,30.21,6.2,SSW,5.8,-,N/A,,Mostly Cloudy,200,2012-11-12 06:50:00
8:20 AM,44.6,39.2,81,30.21,6.2,SSW,9.2,-,N/A,,Mostly Cloudy,200,2012-11-12 07:20:00
8:50 AM,44.6,39.2,81,30.21,6.2,SSW,9.2,-,N/A,,Mostly Cloudy,210,2012-11-12 07:50:00
9:20 AM,44.6,39.2,81,30.21,6.2,SW,10.4,-,N/A,,Mostly Cloudy,220,2012-11-12 08:20:00
9:50 AM,44.6,37.4,76,30.21,-9999.0,SW,9.2,-,N/A,,Clear,220,2012-11-12 08:50:00
10:20 AM,46.4,39.2,76,30.24,-9999.0,SW,5.8,-,N/A,,Clear,220,2012-11-12 09:20:00
10:50 AM,44.6,39.2,81,30.24,6.2,SW,12.7,-,N/A,,Scattered Clouds,230,2012-11-12 09:50:00
11:20 AM,48.2,39.2,71,30.24,6.2,WSW,9.2,-,N/A,,Scattered Clouds,240,2012-11-12 10:20:00
11:50 AM,46.4,39.2,76,30.24,6.2,SSW,11.5,-,N/A,,Scattered Clouds,210,2012-11-12 10:50:00
12:20 PM,46.4,37.4,71,30.24,6.2,SW,11.5,-,N/A,,Partly Cloudy,230,2012-11-12 11:20:00
12:50 PM,48.2,39.2,71,30.24,6.2,SW,9.2,-,N/A,,Scattered Clouds,220,2012-11-12 11:50:00
1:20 PM,48.2,39.2,71,30.27,6.2,SSW,11.5,-,N/A,,Scattered Clouds,210,2012-11-12 12:20:00
1:50 PM,46.4,37.4,71,30.27,6.2,SW,11.5,-,N/A,,Partly Cloudy,220,2012-11-12 12:50:00
2:20 PM,50.0,39.2,66,30.27,6.2,SW,10.4,-,N/A,,Scattered Clouds,230,2012-11-12 13:20:00
2:50 PM,48.2,39.2,71,30.27,6.2,West,6.9,-,N/A,,Partly Cloudy,260,2012-11-12 13:50:00
3:20 PM,48.2,39.2,71,30.27,6.2,WSW,6.9,-,N/A,,Partly Cloudy,240,2012-11-12 14:20:00
3:50 PM,46.4,37.4,71,30.27,6.2,WSW,8.1,-,N/A,,Partly Cloudy,240,2012-11-12 14:50:00
4:20 PM,46.4,37.4,71,30.27,-9999.0,WSW,9.2,-,N/A,,Clear,240,2012-11-12 15:20:00
4:50 PM,42.8,35.6,76,30.30,-9999.0,SSW,4.6,-,N/A,,Clear,200,2012-11-12 15:50:00
5:20 PM,41.0,35.6,81,30.30,-9999.0,SSW,5.8,-,N/A,,Clear,210,2012-11-12 16:20:00
5:50 PM,41.0,35.6,81,30.30,-9999.0,SSW,6.9,-,N/A,,Clear,210,2012-11-12 16:50:00
6:20 PM,39.2,35.6,87,30.30,-9999.0,South,6.9,-,N/A,,Clear,190,2012-11-12 17:20:00
6:50 PM,39.2,35.6,87,30.30,-9999.0,South,5.8,-,N/A,,Clear,190,2012-11-12 17:50:00
7:20 PM,39.2,35.6,87,30.33,-9999.0,SSW,6.9,-,N/A,,Clear,200,2012-11-12 18:20:00
7:50 PM,39.2,35.6,87,30.33,-9999.0,SSW,5.8,-,N/A,,Clear,200,2012-11-12 18:50:00
8:20 PM,37.4,35.6,93,30.33,-9999.0,South,6.9,-,N/A,,Clear,190,2012-11-12 19:20:00
8:50 PM,37.4,35.6,93,30.33,-9999.0,South,6.9,-,N/A,,Clear,190,2012-11-12 19:50:00
9:20 PM,39.2,35.6,87,30.33,-9999.0,South,8.1,-,N/A,,Clear,180,2012-11-12 20:20:00
9:50 PM,37.4,35.6,93,30.33,-9999.0,South,8.1,-,N/A,,Clear,190,2012-11-12 20:50:00